User: anonymous   Login
Location: Eschertshofen
(49.3064°N, 11.5756°E)
Time: 19:14:32
(UTC+00:00)
Language:

Cosmos 1048 Rocket - Orbit

View from above orbital plane
View from above orbital plane
View from above satellite
View from above satellite

Ground track
Ground track

The orbit data is extracted from the following two-line orbital elements,

1 11112U 78105B   20330.86142065 +.00000084 +00000-0 +36740-4 0  9993
2 11112 074.0325 012.1988 0034623 224.0561 135.7833 14.37280461200183
Epoch (UTC): 25 November 2020 20:40:26
Eccentricity: 0.0034623
inclination: 74.0325°
perigee height: 743 km
apogee height: 792 km
right ascension of ascending node: 12.1988°
argument of perigee: 224.0561°
revolutions per day: 14.37280461
mean anomaly at epoch: 135.7833°
orbit number at epoch: 20018

The dashed part of the orbit path shows where the satellite is in the earth's shadow,  

DLR